SCP
0 0 0 0 0 0 0 0 0 0 0 0 0 0 0 0 0 0 0 0 0 0 0 0 0 0 0 0 0 0 0 0 0 0 0 0 0 0 0 0 0 0 0 0 0
0 0 0 0 0 0 0 0 0 0 0 0 0 0 0 0 0 0 0 -0 0 0 0 0 0 0 0 0 0 0 0 0 0 0 0 0 0 -0 -0 0 0 0 0 0 0
0 0 0 0 0 0 0 0 0 0 0 0 0 0 0 0 0 0 0 0 0 0 0 0 0 0 0 0 0 0 0 0 0 0 0 0 0 -0 -0 0 0 0 0 0 0
0 0 0 0 0 0 0 0 0 0 0 0 0 0 0 0 0 0 0 0 0 0 0 0 0 0 0 0 0 0 0 0 0 0 0 0 0 0 -0 0 0 0 0 0 0
0 0 0 0 0 0 0 0 0 0 0 0 0 0 0 0 0 0 0 0 0 0 0 0 0 0 0 0 0 0 0 0 0 0 0 0 0 0 -0 0 0 0 0 0 0
0 0 0 0 0 0 0 0 0 0 0 0 0 0 0 0 0 0 0 0 0 0 0 0 0 0 0 0 0 0 0 0 0 0 0 0 0 0 0 -0 0 0 0 0 0
0 0 0 0 0 0 0 0 0 0 0 0 0 0 0 0 0 0 0 0 0 0 0 0 0 0 0 0 0 0 0 0 0 0 0 0 0 0 0 0 0 0 0 0 0
0 0 0 0 0 0 0 0 0 0 0 0 0 0 0 0 0 0 0 0 0 0 0 0 0 0 0 0 0 0 0 0 0 0 0 0 0 0 0 0 0 0 0 0 0
0 0 0 0 0 0 0 0 0 0 0 0 0 0 0 0 0 0 0 0 0 0 0 0 0 0 0 0 0 0 0 0 0 0 0 0 0 0 0 0 0 0 0 0 0
0 0 0 0 0 0 0 0 0 0 0 0 0 0 0 0 0 0 0 0 0 0 0 0 0 0 0 0 0 0 0 0 0 0 0 0 0 0 0 0 0 0 0 0 0
0 0 0 0 0 0 0 0 0 0 0 0 0 0 0 0 0 0 0 0 0 0 0 0 0 0 0 0 0 0 0 0 0 0 0 0 0 0 0 0 0 0 0 0 0
-0 0 0 0 0 0 0 0 0 0 0 0 0 0 0 0 0 0 0 0 0 0 0 0 0 0 0 0 0 0 0 0 0 0 0 0 0 0 0 0 0 0 0 -0 0
0 0 0 0 0 0 0 0 0 0 0 0 0 0 0 0 0 0 0 0 0 0 0 0 0 0 0 0 0 0 0 0 0 0 0 0 0 0 0 0 -0 -0 0 -0 0
0 0 0 0 0 0 0 0 0 0 0 0 0 0 0 0 0 0 0 0 0 0 0 0 0 0 0 0 0 0 0 0 0 0 0 0 0 0 0 0 0 0 0 0 0
0 0 0 0 0 0 0 0 0 0 0 0 0 0 0 0 0 0 0 0 0 0 0 0 0 0 0 0 0 0 0 0 0 0 0 0 0 -0 0 0 0 0 0 0 0
0 0 0 0 0 0 0 0 0 0 0 0 0 0 0 0 0 0 0 0 0 0 0 0 0 0 0 0 -0 -0 0 0 0 0 0 0 0 -0 0 -0 0 0 0 0 0
0 0 0 0 0 0 0 0 0 0 0 0 0 0 0 0 0 0 0 0 0 0 0 0 0 0 -0 -0 0 0 0 0 0 0 0 0 0 0 0 0 0 0 0 0 0
0 0 0 0 0 0 0 0 0 0 0 0 0 0 0 0 0 0 0 0 0 0 0 0 0 0 0 0 0 0 0 0 0 0 0 -0 -0 -0 0 0 0 0 0 0 0
0 0 0 0 0 0 0 0 0 0 0 0 0 0 0 0 0 0 0 0 0 0 0 0 -0 0 0 0 0 0 0 -0 -0 0 -0 0 -0 0 -0 0 0 0 0 0 0
0 0 0 0 0 0 0 0 0 0 0 0 0 0 0 0 0 0 0 0 0 0 0 0 0 -0 0 -0 0 0 -0 -0 -0 -0 -0 -0 0 0 0 0 0 0 0 0 0
0 0 0 0 0 0 0 0 0 0 0 0 0 0 0 0 0 0 0 -0 0 0 0 0 -0 0 -0 -0 0 -0 -0 0 -0 0 0 0 0 0 0 0 0 0 0 0 0
0 0 0 0 0 0 0 0 0 0 0 0 0 0 0 0 -0 -0 0 0 -0 0 -0 -0 -0 0 -0 -0 0 -0 0 0 0 -0 -0 -0 0 0 0 0 0 0 -0 0 0
0 0 0 0 0 0 0 0 0 0 0 0 0 0 0 -0 -0 0 0 -0 0 -0 -0 -0 -0 -0 0 -0 0 -0 0 0 0 0 0 -0 0 0 -0 0 0 0 -0 -0 -0
0 0 0 0 0 0 0 0 0 0 0 0 0 0 0 0 -0 -0 -0 -0 -0 -0 0 -0 0 0 0 0 0 -0 -0 0 0 -0 0 0 0 -0 -0 -0 -0 -0 0 -0 0
0 0 0 0 0 0 0 0 -0 0 0 0 0 0 0 0 0 0 0 -0 -0 -0 0 0 0 0 -0 0 0 0 0 0 0 0 0 0 0 0 -0 0 0 -0 -0 -0 -0
0 0 0 0 0 0 0 -0 -0 0 0 0 0 -0 -0 -0 -0 -0 -0 -0 -0 0 -0 0 0 -0 -0 -0 0 0 0 0 0 0 0 0 0 -0 0 0 -0 -0 -0 -0 0
0 0 0 0 0 0 0 -0 0 0 0 0 0 0 0 0 0 -0 -0 -0 -0 -0 -0 0 0 0 -0 0 0 0 0 0 -0 -0 0 0 0 0 -0 0 0 -0 -0 -0 -0
Wind_Speed_500mb
28 27 24 24 25 24 26 27 28 30 32 32 33 33 35 41 42 41 51 21 16 13 22 28 27 21 14 23 40 47 21 34 28 30 37 48 42 75 59 43 26 12 13 9 34
29 26 26 26 28 28 29 32 32 31 33 34 32 32 34 41 44 42 25 14 17 20 23 23 17 21 32 17 14 9 17 28 17 25 27 42 40 46 36 45 20 21 10 25 29
28 27 28 30 31 31 32 32 30 28 28 30 32 31 32 35 32 9 9 10 6 20 22 18 20 28 43 46 45 22 32 23 37 52 55 35 50 54 32 17 33 18 31 32 30
30 30 29 32 33 31 30 29 29 29 28 30 32 34 30 24 1 9 16 17 22 24 20 17 16 31 8 17 50 30 45 52 53 67 70 46 56 39 42 36 56 54 39 38 39
32 31 31 32 31 29 28 29 29 28 30 32 33 33 26 12 30 27 25 26 26 18 20 16 31 34 20 16 43 33 33 52 57 62 64 64 46 45 57 50 66 71 59 50 48
34 32 31 31 28 27 28 28 29 32 33 32 31 27 21 11 7 14 21 27 23 15 29 26 30 37 42 31 22 29 39 44 59 57 52 31 31 40 51 55 72 80 73 66 65
32 32 32 29 27 27 27 28 30 32 32 28 28 25 28 49 22 17 27 30 27 22 33 35 39 38 39 24 35 46 28 34 38 28 22 39 35 30 43 50 68 80 82 77 80
33 33 31 27 26 25 27 29 29 30 26 23 20 15 24 16 15 34 24 21 19 24 26 27 45 50 28 35 38 30 17 19 24 30 42 24 43 37 49 59 71 72 74 73 87
35 32 29 25 22 23 25 28 26 25 22 12 12 9 22 13 17 15 11 14 18 24 18 25 30 47 31 11 17 14 29 32 41 21 30 20 41 29 48 67 64 67 72 76 82
31 29 25 20 18 19 22 23 19 25 12 12 9 14 24 14 11 21 23 28 35 37 38 33 28 13 5 11 32 8 20 28 36 43 31 36 44 35 44 45 42 54 56 68 51
30 26 20 17 12 13 19 10 10 7 16 23 20 26 27 29 39 32 33 31 25 26 12 33 21 29 18 28 39 34 38 42 39 27 26 37 21 32 27 44 46 52 48 56 61
27 20 15 11 3 11 21 10 13 15 29 43 59 68 67 60 31 33 25 15 14 13 13 11 41 27 24 34 38 43 50 51 44 43 34 29 25 17 18 19 43 42 48 56 59
24 17 13 6 7 13 9 14 14 19 8 34 27 28 11 15 17 25 21 23 14 19 17 26 23 25 33 39 45 44 41 37 38 32 15 16 30 19 31 38 70 63 67 80 70
21 16 10 6 6 10 9 10 21 18 6 8 7 5 9 4 6 16 16 29 26 31 25 26 23 34 40 43 38 41 33 41 41 38 16 7 30 28 22 41 48 61 88 67 59
21 13 9 10 10 14 9 19 8 6 6 17 11 12 5 12 22 8 51 51 26 29 27 41 31 38 45 46 39 46 37 37 41 35 5 18 13 31 22 38 44 40 38 62 53
19 15 16 13 10 9 10 4 9 1 12 7 13 5 8 25 33 48 58 55 61 34 36 38 49 13 21 40 47 46 36 14 31 7 18 27 19 26 29 29 26 12 38 49 41
16 15 13 14 11 14 3 6 5 6 4 11 18 17 26 25 28 30 16 17 12 12 16 22 25 28 38 46 45 32 32 7 7 7 23 17 22 38 27 39 1 6 45 55 50
16 16 10 6 5 5 10 3 6 5 12 16 23 21 11 17 17 29 27 18 23 11 8 10 23 5 18 25 30 35 21 9 10 11 16 24 18 20 23 10 43 32 57 63 59
22 21 7 10 6 14 5 4 5 11 17 22 22 13 15 37 28 27 28 26 15 8 2 9 20 39 41 30 35 13 12 36 23 15 6 7 14 14 41 30 32 41 56 54 58
26 16 7 10 6 13 6 5 5 18 17 14 9 11 21 24 21 19 14 18 27 10 7 9 28 14 24 31 14 2 6 5 12 5 8 2 7 8 24 35 12 34 42 55 64
21 9 9 2 6 7 4 5 7 19 8 5 14 19 20 22 17 17 13 29 18 10 8 12 12 26 25 7 14 5 2 12 17 8 4 3 8 5 19 24 32 36 54 55 63
9 5 7 9 4 8 4 4 2 5 15 13 7 14 13 18 25 23 25 22 31 6 9 11 10 14 33 36 14 26 21 24 6 4 9 9 3 14 17 13 35 47 52 51 62
9 10 7 10 2 4 6 6 5 6 10 13 10 16 26 21 18 12 21 25 24 6 7 7 6 10 19 5 6 8 19 13 8 12 7 4 5 17 22 38 52 51 53 64 62
5 5 5 7 3 3 9 8 11 23 15 25 23 23 16 21 20 14 21 12 16 11 21 5 12 20 14 11 15 13 35 21 10 8 1 8 17 32 34 36 43 57 57 52 54
5 4 3 5 2 11 4 2 9 9 8 23 7 20 22 11 29 12 17 13 12 23 5 6 14 23 39 42 30 30 40 31 19 7 6 21 39 26 32 32 40 42 46 51 54
8 3 7 13 13 7 2 6 10 7 4 11 11 21 22 22 26 25 20 14 12 8 12 6 9 14 40 36 31 12 24 37 25 29 20 25 29 21 34 38 41 45 49 50 50
8 6 5 17 11 7 9 10 8 12 9 14 17 22 22 20 30 42 39 40 35 27 24 9 6 9 16 40 30 21 34 39 39 41 26 27 17 15 24 31 43 46 46 46 47
Wind_Direction_500mb
292 293 296 297 296 295 296 295 297 302 303 306 308 310 308 305 303 295 282 271 261 281 287 282 257 234 220 241 229 242 238 249 251 256 275 287 288 291 302 270 259 285 316 169 181
284 287 290 290 291 294 293 294 297 301 303 304 308 310 311 311 313 299 290 215 235 271 281 285 230 209 228 236 239 206 242 245 236 266 282 281 283 305 323 312 277 274 267 161 184
276 282 287 289 292 295 295 296 299 300 304 309 313 313 313 318 327 330 111 146 242 287 273 240 234 248 239 230 229 236 251 271 274 277 270 277 296 300 310 314 278 300 290 236 201
273 280 283 289 293 294 296 300 305 308 308 308 308 306 313 318 336 304 278 266 279 290 256 239 241 254 236 244 238 243 240 238 250 256 264 270 278 282 286 291 297 312 301 295 295
271 274 280 285 289 293 295 299 303 303 304 304 302 301 309 291 267 282 281 275 282 285 273 242 259 256 236 238 245 253 251 256 259 253 255 262 260 271 275 290 305 295 299 294 289
269 272 276 279 285 289 293 298 300 301 301 300 298 294 288 269 300 288 290 286 282 281 284 270 272 281 283 262 246 261 264 262 261 263 265 265 265 272 275 288 291 292 287 286 286
267 271 274 277 285 289 292 294 295 297 298 300 290 284 263 254 202 242 273 286 288 259 271 263 274 299 301 305 290 272 285 289 273 269 266 272 276 252 262 272 273 273 280 283 277
266 268 269 278 284 290 292 293 296 298 301 290 273 268 261 263 236 245 275 263 273 275 265 282 270 288 293 299 300 290 279 270 267 250 262 250 263 262 260 255 254 258 262 268 267
258 260 263 275 286 293 296 299 297 292 301 257 244 233 264 300 259 288 239 266 283 273 281 279 268 265 281 315 293 240 255 254 278 250 262 241 262 264 255 250 246 248 254 253 262
252 257 268 276 292 306 317 304 289 280 256 257 207 255 257 230 348 272 274 286 286 285 295 282 257 237 192 200 237 256 234 255 252 259 251 254 255 263 261 269 244 256 259 256 257
243 250 267 283 305 349 347 3 335 317 216 218 198 226 259 259 287 292 290 280 277 253 251 272 256 231 225 224 246 261 268 276 269 278 246 246 259 268 249 266 267 261 263 277 286
241 250 257 278 340 60 37 63 27 326 304 279 258 253 257 267 273 287 268 240 255 246 235 252 255 273 241 239 246 246 249 258 271 275 275 283 280 268 271 262 272 262 270 272 275
236 247 240 243 119 69 37 35 312 313 269 298 252 244 266 206 239 267 282 269 247 265 255 252 267 283 266 260 252 249 257 266 267 267 247 299 292 291 276 276 274 275 263 264 265
225 220 235 167 134 95 124 292 318 340 346 236 171 182 123 180 260 291 286 286 273 266 272 269 287 289 287 280 274 276 258 260 267 269 251 211 276 267 267 255 266 266 265 239 240
209 204 201 154 137 68 275 293 337 15 341 150 104 155 103 158 327 282 316 317 298 286 279 268 266 267 270 277 289 277 279 299 267 262 252 248 271 276 258 274 279 291 232 227 233
193 181 159 129 120 242 298 43 91 70 248 131 135 95 13 343 331 309 293 280 272 282 278 274 279 252 274 290 281 283 287 217 279 293 247 241 234 267 249 250 295 145 86 77 63
175 169 168 163 191 242 267 105 77 213 220 36 13 2 336 316 289 288 343 335 314 311 299 315 297 294 287 288 282 282 265 258 240 210 247 211 232 242 263 250 99 60 72 58 50
162 145 151 141 318 156 135 116 199 346 19 24 357 322 299 317 345 345 338 317 316 4 337 317 313 2 326 313 283 262 214 201 207 214 256 215 250 245 248 216 104 44 71 54 38
139 124 102 29 291 148 91 108 354 26 19 357 354 353 349 347 337 338 332 301 332 57 69 306 273 320 287 310 286 194 184 199 268 309 232 232 273 35 358 50 18 88 64 53 38
134 130 178 349 165 123 86 258 55 51 17 4 347 333 321 317 317 331 317 305 343 52 96 291 301 293 306 355 292 235 105 131 233 275 248 181 281 81 33 19 341 55 57 47 35
144 138 167 97 135 89 142 242 37 11 25 331 298 299 301 307 302 293 286 316 289 352 9 290 247 287 299 212 239 41 176 213 217 216 280 304 79 66 33 18 59 63 55 46 37
161 102 134 178 33 241 166 34 24 308 278 267 266 284 302 313 305 306 296 286 307 87 309 28 273 277 280 269 269 249 211 213 120 257 233 110 11 303 347 54 52 54 51 48 38
128 124 106 137 95 283 86 266 190 278 340 325 325 336 324 315 308 292 298 306 33 28 357 8 275 318 313 238 234 273 208 205 139 36 316 65 101 334 32 41 39 37 34 35 26
78 89 132 172 226 345 38 360 355 348 337 354 319 297 326 305 300 285 277 295 341 205 271 259 223 224 239 289 341 321 318 191 120 156 34 52 64 41 37 30 24 21 23 23 23
95 162 151 197 81 91 87 276 289 327 6 317 306 339 328 301 311 275 325 322 307 303 282 219 260 227 241 251 274 279 286 68 63 57 305 92 58 40 35 29 28 20 20 19 17
108 42 114 116 126 125 186 280 292 338 357 305 305 320 315 294 287 307 330 328 262 313 336 234 286 291 274 211 225 237 88 85 49 31 68 68 52 52 42 37 33 26 23 20 16
93 121 69 178 188 135 198 227 243 136 271 297 316 307 294 288 315 287 273 261 253 274 287 256 276 309 94 114 148 81 97 91 80 41 41 45 3 39 63 52 36 27 25 20 17
Wind_Speed_850mb
28 27 24 24 25 24 26 27 28 30 32 32 33 33 35 41 42 41 51 21 16 13 22 28 27 21 14 23 40 47 21 34 28 30 37 48 42 75 59 43 26 12 13 9 34
29 26 26 26 28 28 29 32 32 31 33 34 32 32 34 41 44 42 25 14 17 20 23 23 17 21 32 17 14 9 17 28 17 25 27 42 40 46 36 45 20 21 10 25 29
28 27 28 30 31 31 32 32 30 28 28 30 32 31 32 35 32 9 9 10 6 20 22 18 20 28 43 46 45 22 32 23 37 52 55 35 50 54 32 17 33 18 31 32 30
30 30 29 32 33 31 30 29 29 29 28 30 32 34 30 24 1 9 16 17 22 24 20 17 16 31 8 17 50 30 45 52 53 67 70 46 56 39 42 36 56 54 39 38 39
32 31 31 32 31 29 28 29 29 28 30 32 33 33 26 12 30 27 25 26 26 18 20 16 31 34 20 16 43 33 33 52 57 62 64 64 46 45 57 50 66 71 59 50 48
34 32 31 31 28 27 28 28 29 32 33 32 31 27 21 11 7 14 21 27 23 15 29 26 30 37 42 31 22 29 39 44 59 57 52 31 31 40 51 55 72 80 73 66 65
32 32 32 29 27 27 27 28 30 32 32 28 28 25 28 49 22 17 27 30 27 22 33 35 39 38 39 24 35 46 28 34 38 28 22 39 35 30 43 50 68 80 82 77 80
33 33 31 27 26 25 27 29 29 30 26 23 20 15 24 16 15 34 24 21 19 24 26 27 45 50 28 35 38 30 17 19 24 30 42 24 43 37 49 59 71 72 74 73 87
35 32 29 25 22 23 25 28 26 25 22 12 12 9 22 13 17 15 11 14 18 24 18 25 30 47 31 11 17 14 29 32 41 21 30 20 41 29 48 67 64 67 72 76 82
31 29 25 20 18 19 22 23 19 25 12 12 9 14 24 14 11 21 23 28 35 37 38 33 28 13 5 11 32 8 20 28 36 43 31 36 44 35 44 45 42 54 56 68 51
30 26 20 17 12 13 19 10 10 7 16 23 20 26 27 29 39 32 33 31 25 26 12 33 21 29 18 28 39 34 38 42 39 27 26 37 21 32 27 44 46 52 48 56 61
27 20 15 11 3 11 21 10 13 15 29 43 59 68 67 60 31 33 25 15 14 13 13 11 41 27 24 34 38 43 50 51 44 43 34 29 25 17 18 19 43 42 48 56 59
24 17 13 6 7 13 9 14 14 19 8 34 27 28 11 15 17 25 21 23 14 19 17 26 23 25 33 39 45 44 41 37 38 32 15 16 30 19 31 38 70 63 67 80 70
21 16 10 6 6 10 9 10 21 18 6 8 7 5 9 4 6 16 16 29 26 31 25 26 23 34 40 43 38 41 33 41 41 38 16 7 30 28 22 41 48 61 88 67 59
21 13 9 10 10 14 9 19 8 6 6 17 11 12 5 12 22 8 51 51 26 29 27 41 31 38 45 46 39 46 37 37 41 35 5 18 13 31 22 38 44 40 38 62 53
19 15 16 13 10 9 10 4 9 1 12 7 13 5 8 25 33 48 58 55 61 34 36 38 49 13 21 40 47 46 36 14 31 7 18 27 19 26 29 29 26 12 38 49 41
16 15 13 14 11 14 3 6 5 6 4 11 18 17 26 25 28 30 16 17 12 12 16 22 25 28 38 46 45 32 32 7 7 7 23 17 22 38 27 39 1 6 45 55 50
16 16 10 6 5 5 10 3 6 5 12 16 23 21 11 17 17 29 27 18 23 11 8 10 23 5 18 25 30 35 21 9 10 11 16 24 18 20 23 10 43 32 57 63 59
22 21 7 10 6 14 5 4 5 11 17 22 22 13 15 37 28 27 28 26 15 8 2 9 20 39 41 30 35 13 12 36 23 15 6 7 14 14 41 30 32 41 56 54 58
26 16 7 10 6 13 6 5 5 18 17 14 9 11 21 24 21 19 14 18 27 10 7 9 28 14 24 31 14 2 6 5 12 5 8 2 7 8 24 35 12 34 42 55 64
21 9 9 2 6 7 4 5 7 19 8 5 14 19 20 22 17 17 13 29 18 10 8 12 12 26 25 7 14 5 2 12 17 8 4 3 8 5 19 24 32 36 54 55 63
9 5 7 9 4 8 4 4 2 5 15 13 7 14 13 18 25 23 25 22 31 6 9 11 10 14 33 36 14 26 21 24 6 4 9 9 3 14 17 13 35 47 52 51 62
9 10 7 10 2 4 6 6 5 6 10 13 10 16 26 21 18 12 21 25 24 6 7 7 6 10 19 5 6 8 19 13 8 12 7 4 5 17 22 38 52 51 53 64 62
5 5 5 7 3 3 9 8 11 23 15 25 23 23 16 21 20 14 21 12 16 11 21 5 12 20 14 11 15 13 35 21 10 8 1 8 17 32 34 36 43 57 57 52 54
5 4 3 5 2 11 4 2 9 9 8 23 7 20 22 11 29 12 17 13 12 23 5 6 14 23 39 42 30 30 40 31 19 7 6 21 39 26 32 32 40 42 46 51 54
8 3 7 13 13 7 2 6 10 7 4 11 11 21 22 22 26 25 20 14 12 8 12 6 9 14 40 36 31 12 24 37 25 29 20 25 29 21 34 38 41 45 49 50 50
8 6 5 17 11 7 9 10 8 12 9 14 17 22 22 20 30 42 39 40 35 27 24 9 6 9 16 40 30 21 34 39 39 41 26 27 17 15 24 31 43 46 46 46 47
Wind_Direction_850mb
292 293 296 297 296 295 296 295 297 302 303 306 308 310 308 305 303 295 282 271 261 281 287 282 257 234 220 241 229 242 238 249 251 256 275 287 288 291 302 270 259 285 316 169 181
284 287 290 290 291 294 293 294 297 301 303 304 308 310 311 311 313 299 290 215 235 271 281 285 230 209 228 236 239 206 242 245 236 266 282 281 283 305 323 312 277 274 267 161 184
276 282 287 289 292 295 295 296 299 300 304 309 313 313 313 318 327 330 111 146 242 287 273 240 234 248 239 230 229 236 251 271 274 277 270 277 296 300 310 314 278 300 290 236 201
273 280 283 289 293 294 296 300 305 308 308 308 308 306 313 318 336 304 278 266 279 290 256 239 241 254 236 244 238 243 240 238 250 256 264 270 278 282 286 291 297 312 301 295 295
271 274 280 285 289 293 295 299 303 303 304 304 302 301 309 291 267 282 281 275 282 285 273 242 259 256 236 238 245 253 251 256 259 253 255 262 260 271 275 290 305 295 299 294 289
269 272 276 279 285 289 293 298 300 301 301 300 298 294 288 269 300 288 290 286 282 281 284 270 272 281 283 262 246 261 264 262 261 263 265 265 265 272 275 288 291 292 287 286 286
267 271 274 277 285 289 292 294 295 297 298 300 290 284 263 254 202 242 273 286 288 259 271 263 274 299 301 305 290 272 285 289 273 269 266 272 276 252 262 272 273 273 280 283 277
266 268 269 278 284 290 292 293 296 298 301 290 273 268 261 263 236 245 275 263 273 275 265 282 270 288 293 299 300 290 279 270 267 250 262 250 263 262 260 255 254 258 262 268 267
258 260 263 275 286 293 296 299 297 292 301 257 244 233 264 300 259 288 239 266 283 273 281 279 268 265 281 315 293 240 255 254 278 250 262 241 262 264 255 250 246 248 254 253 262
252 257 268 276 292 306 317 304 289 280 256 257 207 255 257 230 348 272 274 286 286 285 295 282 257 237 192 200 237 256 234 255 252 259 251 254 255 263 261 269 244 256 259 256 257
243 250 267 283 305 349 347 3 335 317 216 218 198 226 259 259 287 292 290 280 277 253 251 272 256 231 225 224 246 261 268 276 269 278 246 246 259 268 249 266 267 261 263 277 286
241 250 257 278 340 60 37 63 27 326 304 279 258 253 257 267 273 287 268 240 255 246 235 252 255 273 241 239 246 246 249 258 271 275 275 283 280 268 271 262 272 262 270 272 275
236 247 240 243 119 69 37 35 312 313 269 298 252 244 266 206 239 267 282 269 247 265 255 252 267 283 266 260 252 249 257 266 267 267 247 299 292 291 276 276 274 275 263 264 265
225 220 235 167 134 95 124 292 318 340 346 236 171 182 123 180 260 291 286 286 273 266 272 269 287 289 287 280 274 276 258 260 267 269 251 211 276 267 267 255 266 266 265 239 240
209 204 201 154 137 68 275 293 337 15 341 150 104 155 103 158 327 282 316 317 298 286 279 268 266 267 270 277 289 277 279 299 267 262 252 248 271 276 258 274 279 291 232 227 233
193 181 159 129 120 242 298 43 91 70 248 131 135 95 13 343 331 309 293 280 272 282 278 274 279 252 274 290 281 283 287 217 279 293 247 241 234 267 249 250 295 145 86 77 63
175 169 168 163 191 242 267 105 77 213 220 36 13 2 336 316 289 288 343 335 314 311 299 315 297 294 287 288 282 282 265 258 240 210 247 211 232 242 263 250 99 60 72 58 50
162 145 151 141 318 156 135 116 199 346 19 24 357 322 299 317 345 345 338 317 316 4 337 317 313 2 326 313 283 262 214 201 207 214 256 215 250 245 248 216 104 44 71 54 38
139 124 102 29 291 148 91 108 354 26 19 357 354 353 349 347 337 338 332 301 332 57 69 306 273 320 287 310 286 194 184 199 268 309 232 232 273 35 358 50 18 88 64 53 38
134 130 178 349 165 123 86 258 55 51 17 4 347 333 321 317 317 331 317 305 343 52 96 291 301 293 306 355 292 235 105 131 233 275 248 181 281 81 33 19 341 55 57 47 35
144 138 167 97 135 89 142 242 37 11 25 331 298 299 301 307 302 293 286 316 289 352 9 290 247 287 299 212 239 41 176 213 217 216 280 304 79 66 33 18 59 63 55 46 37
161 102 134 178 33 241 166 34 24 308 278 267 266 284 302 313 305 306 296 286 307 87 309 28 273 277 280 269 269 249 211 213 120 257 233 110 11 303 347 54 52 54 51 48 38
128 124 106 137 95 283 86 266 190 278 340 325 325 336 324 315 308 292 298 306 33 28 357 8 275 318 313 238 234 273 208 205 139 36 316 65 101 334 32 41 39 37 34 35 26
78 89 132 172 226 345 38 360 355 348 337 354 319 297 326 305 300 285 277 295 341 205 271 259 223 224 239 289 341 321 318 191 120 156 34 52 64 41 37 30 24 21 23 23 23
95 162 151 197 81 91 87 276 289 327 6 317 306 339 328 301 311 275 325 322 307 303 282 219 260 227 241 251 274 279 286 68 63 57 305 92 58 40 35 29 28 20 20 19 17
108 42 114 116 126 125 186 280 292 338 357 305 305 320 315 294 287 307 330 328 262 313 336 234 286 291 274 211 225 237 88 85 49 31 68 68 52 52 42 37 33 26 23 20 16
93 121 69 178 188 135 198 227 243 136 271 297 316 307 294 288 315 287 273 261 253 274 287 256 276 309 94 114 148 81 97 91 80 41 41 45 3 39 63 52 36 27 25 20 17